APSTAR 6C

Last updated on Jan. 20, 2020, 4:31 a.m. UTC

1 43450U 18041A   20019.40940862 -.00000323  00000-0  00000+0 0  9993
2 43450   0.0217 239.5749 0001059 128.9125  31.1132  1.00267252  6372
UTC
Height (km)
Latitude
Longitude
Inclination
Orbital Period
UTC large
Height (km)
Speed (km/s)
/
Latitude / Longitude
Inclination (degrees)
Orbital Period (minutes)
Azimuth
Elevation
Range (km)
Doppler Factor
iOS Compass Heading
iOS Angle

Next 30 passes for location: Hong Kong

Rise time Rise Azimuth (degrees) Set time Set Azimuth (degrees) Duration Max altitude (degrees)

No matching passes for this satellites